FIREBIRD 4

Last updated on Wed Aug 02 2023 01:03:36 GMT+0100 (British Summer Time)

1 40378U 15003C 23212.85512266 .05342662 35843-5 12681-2 0 9992 2 40378 99.0595 187.0765 0005512 162.7751 197.3725 16.29625419471750
UTC large
Height (km)
Speed (km/s)
/
Latitude / Longitude
Inclination (degrees)
Orbital Period (minutes)
Azimuth
Elevation
Range (km)
Doppler Factor

Next 0 passes for location: London (51.5072 / 0.1276)

Sorry there are no passes over London.